Terminal Aerodrome Forecast
Issued by NWS Pittsburgh, PA

Current Version | Previous Version | Graphics & Text | Print | Product List | Glossary On
Versions: 1 2 3 4 5 6 7 8 9 10 11 12 13 14 15 16 17 18 19 20 21 22 23 24 25 26 27 28 29 30 31 32
422
FTUS41 KPBZ 020708 AAA
TAFPIT
TAF AMD
KPIT 020708Z 0207/0312 25008KT P6SM SCT025 OVC050
      TEMPO 0207/0210 BKN025
     FM021300 26010G20KT P6SM OVC025
     FM022200 28010KT P6SM BKN025=

USA.gov is the U.S. government's official web portal to all federal, state and local government web resources and services.